Location: Bennemühlen
(52.5740°N, 9.7135°E)
Time: 03:48:45
(UTC+00:00)

A-11 Canister half - Pass Details

Date: 21 February 2026
Orbit: 1512 x 1687 km, 47.2° (Epoch: 7 March)

Event Time Altitude Azimuth Distance (km) Brightness Sun altitude
Rises 21:21:45 0° 252° (WSW) 4,938 11.9 -40.0°
Reaches altitude 10° 21:24:58 10° 249° (WSW) 3,944 11.3 -40.3°
Enters shadow 21:30:31 37° 237° (WSW) 2,394 9.9 -40.9°
Maximum altitude 21:34:54 64° 172° (S) 1,807 - -41.3°
Drops below altitude 10° 21:44:35 10° 94° (E) 3,843 - -42.2°
Sets 21:47:40 0° 92° (E) 4,806 - -42.5°
